Wetbulb
56.07 55.99 55.99 55.54 55.09 54.55 54.10 53.56 54.17 53.95 53.60 53.72 53.81 54.02 54.13 54.41 54.76 55.22 54.67 54.34 54.32 53.97 53.88 53.70 54.35 54.78 52.30 43.39 42.87 51.65 58.46 55.98 59.12 55.16 51.74 49.09 44.27 42.64 37.92 39.28 40.51 37.06 40.52 42.72 43.74 43.29 42.83
53.89 54.27 54.32 53.82 53.18 52.52 52.33 52.36 52.57 52.26 51.92 53.00 52.65 52.63 52.78 52.86 53.03 53.38 53.85 53.90 53.57 53.84 54.26 54.02 53.86 54.82 48.37 37.54 49.29 51.41 51.52 52.06 56.82 53.92 51.46 49.07 47.79 45.44 41.53 40.97 39.52 41.89 43.07 43.54 42.95 42.77 41.54
52.92 52.97 52.93 52.28 51.78 52.12 51.95 51.94 51.66 51.67 51.90 51.90 51.76 52.15 51.98 52.07 52.22 52.36 53.23 53.03 53.01 53.09 52.86 53.64 53.83 51.16 45.81 41.98 50.81 50.75 49.93 47.97 49.01 54.63 51.51 52.82 50.24 48.09 44.67 40.16 43.67 44.06 40.10 42.55 42.09 42.74 41.80
52.33 52.05 51.88 52.08 52.03 51.84 51.46 51.57 51.36 51.42 51.31 51.73 52.31 52.24 51.77 51.90 51.86 52.14 52.96 52.66 52.62 52.64 53.21 53.68 53.89 49.08 40.95 51.37 51.85 50.19 50.54 48.61 50.62 50.32 52.34 53.86 52.60 46.60 42.36 43.91 43.13 38.28 39.68 36.65 39.77 41.79 42.25
51.57 51.53 51.88 51.66 51.38 51.22 51.18 51.16 51.07 51.21 51.21 51.19 52.00 52.05 51.82 51.46 51.79 51.82 52.45 52.32 52.86 52.65 53.13 53.13 48.95 47.96 40.34 52.93 49.63 51.93 51.29 47.55 49.59 50.60 53.30 56.30 49.67 44.35 43.25 38.72 35.16 35.49 30.01 32.47 37.30 41.27 41.60
51.94 51.96 51.79 51.61 51.33 51.72 51.11 51.28 51.43 51.28 51.08 51.18 51.79 51.78 51.87 51.93 51.89 52.05 51.79 51.72 51.38 50.96 51.54 51.79 51.14 44.39 45.31 44.41 50.31 52.93 53.58 50.60 49.78 50.11 49.86 49.86 44.29 40.20 39.46 36.83 30.72 32.23 31.08 35.37 35.19 39.46 40.02
51.37 51.49 51.35 51.04 50.87 50.84 51.11 50.75 50.86 51.15 51.13 51.30 51.55 51.57 51.36 51.47 51.70 51.43 48.95 45.60 37.35 40.30 46.05 42.66 44.05 44.00 45.73 50.43 53.10 50.90 53.54 50.50 49.32 49.33 43.86 46.12 39.57 35.50 38.65 40.24 39.79 38.07 36.89 34.53 36.74 41.19 39.59
50.60 51.16 50.59 50.99 50.75 50.47 50.77 50.67 50.71 50.84 51.17 51.43 51.53 51.64 51.68 51.58 51.49 51.12 48.04 41.51 41.01 42.85 35.80 44.65 45.73 46.09 48.83 49.59 44.32 47.94 52.49 46.47 44.66 41.92 46.11 41.15 38.50 42.78 43.16 41.39 39.80 38.86 35.18 33.88 37.60 41.00 38.69
50.50 50.25 50.27 50.54 50.69 50.44 50.07 50.56 50.95 51.07 51.26 51.46 51.46 51.48 51.58 51.62 51.06 46.31 40.95 41.91 46.82 44.20 35.68 40.41 44.39 44.52 45.69 47.85 43.72 44.53 48.31 45.89 43.61 41.50 42.95 39.73 41.26 45.72 43.21 41.13 38.43 37.98 36.42 34.55 35.10 40.12 39.58
49.71 49.88 50.01 50.10 51.08 50.89 50.10 50.24 50.03 50.20 50.71 50.96 50.79 50.80 51.12 51.00 44.35 41.25 40.09 43.57 44.67 44.49 31.62 35.71 40.06 43.88 46.36 47.36 43.17 49.72 49.86 45.58 43.28 40.60 43.19 42.17 45.96 43.44 41.47 39.73 40.40 35.37 40.29 39.02 38.15 35.64 29.62
49.36 48.72 48.59 48.83 49.84 49.69 49.56 49.72 50.08 49.86 50.25 50.37 50.29 50.49 50.28 50.07 44.33 41.48 42.28 42.98 44.92 41.26 18.79 37.09 40.50 49.68 47.37 42.81 45.00 46.73 51.51 46.13 40.07 42.81 44.01 40.77 42.72 42.19 39.83 40.55 42.40 38.34 42.10 39.45 38.48 34.27 32.37
48.49 48.74 48.40 48.27 48.59 49.49 49.75 49.93 50.15 50.46 50.23 49.83 49.81 49.93 49.71 45.37 43.43 44.22 45.72 43.28 41.44 30.70 20.79 33.68 40.78 39.86 39.65 41.54 42.03 46.83 47.67 48.52 46.69 43.07 45.59 43.37 47.08 45.79 43.92 44.62 44.12 43.45 40.24 37.99 35.95 32.53 27.08
47.92 48.09 47.92 47.77 47.96 49.04 49.38 49.45 49.75 49.98 49.84 49.45 49.35 49.19 47.55 47.00 41.13 43.13 42.02 38.89 29.40 23.81 36.29 33.55 34.76 38.50 37.73 36.69 38.91 43.70 41.54 39.73 37.51 36.81 37.12 41.76 42.31 45.70 46.93 41.93 42.98 41.41 36.02 26.17 24.38 24.05 26.51
47.33 47.42 47.46 47.43 47.66 48.69 48.90 48.96 49.08 49.12 49.19 49.31 48.62 47.81 45.58 45.34 46.60 45.79 43.03 33.50 23.27 29.33 31.52 37.24 37.30 37.04 33.58 35.82 39.75 40.94 39.98 37.22 40.42 39.67 36.95 35.50 34.08 42.67 46.31 42.76 39.55 37.69 35.67 27.13 21.97 23.21 26.95
47.30 47.26 47.39 47.48 47.48 48.52 48.87 48.98 48.91 48.62 48.42 48.13 47.58 41.27 40.61 42.84 48.22 46.39 40.02 25.68 24.59 30.36 35.56 35.72 36.69 32.68 32.42 36.51 37.26 37.60 37.33 38.00 39.41 40.88 35.90 36.48 35.62 45.31 46.70 46.52 44.65 38.33 35.80 38.60 31.88 33.96 27.48
47.35 47.13 47.09 47.44 47.32 48.49 48.98 49.19 49.01 48.83 48.63 48.05 40.47 37.24 38.21 45.49 47.12 45.35 34.80 31.86 34.07 39.41 39.42 38.50 31.68 34.47 30.41 33.40 33.97 34.32 35.50 40.71 39.94 43.49 44.27 39.42 35.44 43.75 45.20 47.49 46.96 43.03 42.15 33.78 32.76 25.70 23.56
46.87 46.78 46.94 47.20 47.31 48.70 48.97 48.79 48.74 48.70 48.28 47.54 36.01 33.92 39.44 44.11 49.04 38.93 31.39 33.33 35.73 39.90 40.98 37.82 36.20 35.37 34.39 34.04 35.74 34.12 34.70 40.19 42.64 42.62 43.61 42.52 38.84 39.61 43.71 42.09 40.52 41.06 39.47 38.89 36.25 33.08 26.99
46.94 46.73 46.82 46.58 47.33 48.35 48.81 48.52 48.41 48.29 47.60 44.44 38.01 26.25 39.50 44.10 33.26 33.21 32.24 35.00 38.08 38.61 41.49 39.80 40.35 38.09 36.65 37.59 34.29 35.55 34.18 38.48 45.32 44.28 39.03 41.91 38.24 35.30 38.48 44.18 46.49 44.05 40.11 39.67 30.46 29.11 31.92
46.53 46.35 46.50 46.40 47.37 48.22 48.45 48.33 48.17 48.22 47.89 42.91 34.17 34.12 41.30 42.82 26.52 30.99 34.15 33.64 37.00 37.57 37.36 39.24 36.85 39.50 39.23 35.54 32.07 36.02 37.12 44.00 44.56 42.75 40.25 42.35 38.07 32.25 35.43 40.42 43.84 41.19 41.44 39.48 36.94 36.57 32.52
45.90 46.35 46.23 46.16 46.86 48.01 48.36 48.28 48.16 48.30 47.95 43.26 36.33 30.51 33.53 34.62 33.77 32.27 30.55 31.46 32.88 38.27 36.91 38.41 38.66 40.98 37.67 35.43 37.56 35.76 37.06 41.91 43.63 43.61 46.49 43.01 37.76 36.84 31.26 34.95 39.15 38.74 41.46 41.45 37.56 33.13 33.84
46.07 46.30 46.43 46.34 47.34 47.87 47.91 48.12 47.92 47.99 47.93 39.87 36.22 32.20 33.16 25.80 29.06 30.51 32.07 31.80 32.61 32.48 36.59 38.01 38.30 36.95 34.57 33.96 34.00 34.03 38.51 40.01 42.80 44.86 44.51 42.10 35.68 38.49 40.64 41.99 42.41 41.65 41.12 41.90 37.69 37.84 35.61
45.20 46.04 46.17 47.19 46.97 47.13 47.33 47.93 47.89 47.94 47.27 36.58 31.89 32.46 34.89 32.09 32.14 31.04 31.31 31.81 32.07 34.23 35.42 35.68 36.11 37.34 37.26 34.99 35.01 33.59 37.18 38.04 39.36 43.36 42.10 43.20 36.42 40.41 38.21 42.48 42.74 40.79 42.74 43.02 41.53 40.40 41.14
45.56 45.72 46.81 46.96 46.84 47.12 47.43 47.74 47.69 48.21 45.58 39.87 40.45 40.61 35.99 31.34 31.35 30.01 30.25 31.82 32.78 35.25 36.47 37.63 37.99 37.77 35.72 37.75 40.63 40.44 41.44 40.50 40.37 40.33 40.60 39.08 36.29 38.65 35.67 40.91 40.11 35.36 40.80 42.48 42.98 43.52 42.46
45.42 46.49 46.73 46.66 46.81 47.22 47.31 47.53 47.68 48.06 46.93 42.19 41.21 39.82 33.71 28.18 30.27 30.30 31.89 33.80 32.99 34.48 34.17 37.68 39.72 38.30 39.72 43.51 43.32 42.27 41.24 40.96 41.83 42.48 44.33 36.43 35.18 38.01 36.35 38.50 30.70 40.54 46.02 45.99 43.74 44.46 45.04
46.22 46.54 46.45 46.60 47.11 47.13 47.25 47.29 47.87 48.24 48.30 39.84 41.30 39.54 35.61 28.87 33.17 32.38 32.63 32.68 35.01 35.98 35.15 36.09 39.84 42.52 44.74 41.32 36.90 34.39 36.24 37.87 39.80 41.94 41.94 41.21 39.35 35.82 33.38 33.65 38.43 41.65 43.33 42.71 41.69 40.67 45.62
46.12 46.09 46.11 46.39 46.93 47.35 47.82 47.78 47.28 48.36 48.66 42.24 42.42 43.12 38.55 32.47 30.02 33.97 32.25 34.68 32.82 33.72 34.82 36.32 41.32 45.19 42.56 37.57 35.88 32.97 31.70 33.67 34.12 38.85 44.31 43.14 42.61 36.49 34.23 30.15 29.72 39.03 45.50 48.17 45.51 36.14 44.58
45.35 45.64 46.04 46.49 47.00 47.76 48.32 48.60 48.49 48.45 48.76 46.54 43.49 43.93 40.20 33.79 35.45 36.08 32.26 33.18 37.43 35.20 32.88 35.71 39.25 39.49 40.29 33.02 32.82 32.99 34.54 38.88 33.09 34.66 34.75 38.18 37.52 34.26 33.23 31.77 37.94 43.87 46.56 47.78 33.45 35.64 44.78
44.63 45.39 46.01 46.48 46.84 47.92 48.65 49.06 48.62 48.70 48.93 47.06 44.20 45.05 41.53 36.20 36.59 37.97 39.03 36.93 36.75 36.41 31.92 36.45 35.90 37.66 34.96 32.28 33.67 33.48 34.92 39.00 37.08 37.56 38.47 37.11 34.40 33.38 34.13 31.27 29.58 45.98 45.11 38.79 39.64 43.98 44.26
43.97 45.08 45.95 46.13 47.14 47.75 48.37 49.06 49.29 48.59 48.95 48.39 42.86 41.59 44.67 39.34 37.22 41.08 41.34 42.72 41.56 41.23 38.98 39.52 38.56 39.15 37.09 33.92 34.22 33.74 36.60 39.90 38.09 33.18 43.35 36.59 38.96 37.90 38.28 37.76 42.39 43.53 41.70 43.24 43.64 41.34 41.93
MSLP
1024.60 1024.19 1023.86 1023.58 1023.26 1022.87 1022.45 1022.06 1021.57 1021.08 1020.63 1020.11 1019.53 1018.93 1018.37 1017.82 1017.25 1016.73 1016.30 1015.86 1015.53 1015.20 1014.88 1014.69 1014.44 1014.24 1014.01 1013.54 1010.92 1007.50 1007.12 1007.74 1007.86 1008.51 1008.58 1008.71 1009.29 1009.68 1009.69 1009.27 1009.02 1008.53 1008.11 1007.69 1007.59 1007.54 1007.27
1025.03 1024.55 1024.19 1023.86 1023.54 1023.14 1022.70 1022.22 1021.70 1021.21 1020.70 1020.19 1019.66 1019.16 1018.58 1017.99 1017.33 1016.63 1015.91 1015.33 1014.98 1014.63 1014.33 1014.15 1014.08 1014.10 1014.10 1012.44 1008.49 1007.71 1007.79 1007.62 1007.59 1008.26 1008.68 1008.45 1008.12 1008.47 1008.78 1008.64 1008.46 1007.68 1007.44 1007.28 1007.29 1007.10 1006.91
1025.40 1024.99 1024.60 1024.18 1023.74 1023.31 1022.85 1022.34 1021.84 1021.30 1020.77 1020.20 1019.64 1019.08 1018.48 1017.84 1017.21 1016.55 1015.81 1015.04 1014.47 1014.18 1013.73 1013.53 1013.59 1013.61 1012.59 1009.37 1007.57 1007.21 1007.46 1008.10 1007.94 1007.70 1007.76 1007.69 1007.41 1007.63 1007.94 1008.21 1007.53 1007.43 1007.46 1006.94 1006.67 1006.56 1006.35
1025.68 1025.27 1024.80 1024.39 1023.95 1023.51 1023.02 1022.46 1021.88 1021.31 1020.72 1020.10 1019.48 1018.92 1018.28 1017.58 1016.94 1016.23 1015.42 1014.43 1013.40 1013.26 1012.82 1012.69 1012.76 1013.04 1010.10 1007.70 1006.90 1006.99 1007.20 1007.23 1007.19 1007.03 1007.02 1006.73 1007.22 1007.60 1007.78 1007.61 1007.20 1007.07 1007.14 1006.92 1005.91 1005.95 1005.55
1025.89 1025.44 1024.99 1024.58 1024.10 1023.63 1023.11 1022.49 1021.92 1021.31 1020.69 1020.04 1019.36 1018.69 1017.99 1017.15 1016.40 1015.72 1014.89 1013.73 1012.34 1011.76 1011.51 1011.55 1012.05 1011.97 1008.42 1006.57 1006.12 1004.74 1005.77 1005.80 1005.74 1006.49 1006.26 1006.50 1007.21 1007.54 1007.70 1008.12 1008.26 1007.25 1006.63 1006.12 1005.95 1005.31 1005.21
1026.07 1025.59 1025.08 1024.56 1024.03 1023.55 1023.03 1022.43 1021.86 1021.26 1020.60 1019.90 1019.18 1018.51 1017.82 1016.98 1016.10 1015.35 1014.54 1013.12 1011.08 1010.94 1010.75 1011.13 1010.98 1011.24 1007.77 1005.52 1004.61 1003.92 1003.86 1004.77 1004.97 1005.41 1006.49 1006.43 1006.63 1006.86 1006.84 1007.34 1005.49 1006.52 1006.46 1005.75 1005.27 1004.63 1004.73
1026.28 1025.76 1025.24 1024.67 1024.10 1023.54 1022.98 1022.40 1021.77 1021.13 1020.48 1019.78 1019.03 1018.29 1017.56 1016.85 1015.78 1014.90 1014.13 1012.95 1011.29 1011.18 1011.09 1010.68 1009.90 1008.26 1005.56 1004.07 1003.62 1003.24 1003.55 1004.44 1004.77 1004.32 1004.70 1005.33 1005.64 1003.81 1004.85 1005.35 1005.77 1005.64 1005.50 1005.02 1004.69 1004.16 1004.13
1026.31 1025.81 1025.30 1024.71 1024.13 1023.52 1022.90 1022.29 1021.68 1021.03 1020.26 1019.42 1018.59 1017.84 1017.22 1016.53 1015.57 1014.48 1014.33 1013.78 1012.93 1012.88 1010.32 1008.90 1008.02 1006.29 1003.74 1003.58 1002.90 1003.03 1002.88 1003.78 1003.90 1002.87 1003.72 1004.52 1002.35 1003.04 1004.22 1004.75 1005.10 1005.20 1004.96 1004.60 1004.46 1003.92 1003.94
1026.35 1025.81 1025.23 1024.76 1024.17 1023.55 1022.91 1022.26 1021.56 1020.82 1020.07 1019.18 1018.18 1017.31 1016.74 1015.94 1015.01 1014.34 1014.52 1013.63 1012.31 1012.64 1011.28 1006.15 1004.50 1003.16 1002.33 1002.56 1001.82 1001.47 1002.57 1002.49 1002.44 1002.55 1001.61 1001.28 1000.58 1002.61 1002.88 1003.19 1003.86 1003.92 1003.85 1004.26 1004.41 1004.13 1003.96
1026.41 1025.95 1025.35 1024.82 1024.12 1023.44 1022.80 1022.07 1021.38 1020.59 1019.81 1018.96 1017.96 1016.94 1016.32 1015.63 1014.63 1014.40 1013.82 1012.60 1012.68 1012.73 1011.00 1005.44 1002.92 1001.35 1000.79 1001.49 1001.27 999.46 999.96 1001.54 1001.42 1001.10 1001.78 1001.33 1000.75 1000.97 1001.15 1001.40 1002.14 1002.66 1003.25 1003.92 1004.32 1004.66 1004.76
1026.53 1025.99 1025.47 1024.80 1024.11 1023.40 1022.73 1022.05 1021.28 1020.48 1019.64 1018.72 1017.58 1016.45 1015.82 1015.56 1014.60 1013.98 1012.63 1012.40 1012.38 1012.28 1009.99 1003.58 1001.26 1000.01 1000.58 1001.01 999.98 998.68 998.22 999.84 999.97 1000.10 1000.90 999.27 999.89 1000.23 1000.47 999.87 1001.20 1001.18 1002.29 1003.30 1004.07 1004.55 1005.09
1026.61 1026.04 1025.49 1024.85 1024.12 1023.40 1022.68 1021.94 1021.16 1020.26 1019.41 1018.43 1017.09 1015.90 1014.88 1013.86 1013.74 1012.79 1012.25 1012.69 1012.53 1011.82 1007.80 1003.62 1001.27 1000.72 1000.86 1000.62 999.86 998.97 998.77 999.05 999.56 999.90 999.44 998.97 999.02 999.41 998.67 999.88 1000.29 1000.92 1002.02 1003.20 1004.11 1005.24 1005.23
1026.69 1026.08 1025.46 1024.86 1024.12 1023.41 1022.62 1021.83 1021.00 1020.04 1019.08 1018.02 1016.47 1015.15 1014.30 1013.98 1013.22 1012.38 1012.53 1012.82 1012.12 1009.84 1006.33 1003.75 1002.57 1002.10 1001.71 1001.13 1000.37 999.96 1000.00 1000.15 1000.09 999.93 999.77 999.07 998.57 998.38 998.40 999.42 999.81 1000.46 1001.70 1003.68 1005.12 1005.54 1004.00
1026.70 1026.08 1025.47 1024.83 1024.08 1023.34 1022.55 1021.69 1020.77 1019.79 1018.80 1017.58 1015.76 1014.38 1013.21 1012.75 1012.37 1012.41 1012.86 1012.83 1010.99 1007.81 1006.23 1004.19 1003.70 1002.88 1002.57 1001.44 1000.96 1000.50 1000.49 1000.76 1001.33 1001.43 1000.90 999.36 998.57 997.60 997.26 997.41 998.59 999.76 1000.88 1002.33 1003.50 1004.20 1004.11
1026.66 1026.03 1025.41 1024.73 1023.97 1023.23 1022.38 1021.42 1020.59 1019.62 1018.58 1017.39 1015.64 1013.87 1013.29 1012.34 1011.59 1012.24 1012.86 1012.03 1009.53 1007.65 1006.12 1005.55 1004.70 1003.57 1002.74 1001.94 1002.01 1001.36 1000.76 1000.75 1000.73 1000.73 1001.02 999.61 997.92 996.39 997.05 996.99 998.02 998.87 1000.09 1000.91 1002.75 1003.78 1003.78
1026.49 1025.91 1025.30 1024.66 1023.81 1023.01 1022.23 1021.30 1020.40 1019.50 1018.58 1017.49 1016.23 1014.99 1013.23 1012.08 1011.98 1012.46 1012.38 1010.65 1008.98 1007.57 1006.56 1006.17 1005.67 1004.63 1003.68 1002.85 1002.89 1001.98 1000.93 1000.26 1000.28 1000.36 1000.43 1000.21 998.54 996.69 996.21 996.85 997.20 997.56 999.06 1000.89 1002.31 1003.37 1003.84
1026.37 1025.79 1025.17 1024.45 1023.62 1022.83 1022.05 1021.20 1020.28 1019.39 1018.48 1017.45 1016.74 1015.60 1012.89 1011.87 1012.04 1012.59 1012.18 1011.01 1009.57 1008.30 1007.51 1006.81 1005.65 1004.90 1004.07 1003.38 1002.73 1001.98 1000.93 999.93 999.98 1000.29 1000.07 999.88 999.28 996.93 996.48 996.16 996.30 997.36 998.34 999.67 1001.01 1002.44 1003.20
1026.32 1025.75 1025.09 1024.27 1023.51 1022.84 1022.06 1021.33 1020.34 1019.51 1018.54 1017.53 1017.29 1016.43 1013.03 1012.43 1012.86 1012.77 1012.25 1011.46 1010.22 1008.11 1007.20 1006.27 1005.09 1004.44 1004.01 1003.53 1002.96 1002.20 1000.72 999.59 999.06 999.57 999.89 999.90 999.41 997.78 997.07 996.73 996.35 996.92 997.89 999.15 1000.37 1002.26 1002.90
1026.21 1025.66 1024.96 1024.30 1023.57 1022.85 1022.06 1021.26 1020.53 1019.82 1019.06 1018.48 1017.70 1016.62 1013.87 1013.35 1014.15 1013.26 1012.35 1011.14 1009.88 1008.72 1007.41 1006.30 1005.33 1004.73 1004.04 1003.87 1003.30 1001.93 1000.72 999.26 999.29 999.54 999.81 1000.39 998.96 998.57 997.77 997.63 997.10 997.01 997.79 998.64 999.93 1001.19 1002.29
1025.94 1025.39 1024.67 1024.04 1023.23 1022.61 1022.03 1021.28 1020.67 1020.04 1019.16 1018.78 1018.30 1017.01 1015.72 1014.90 1014.85 1014.42 1012.85 1011.11 1009.80 1008.88 1007.45 1006.59 1005.35 1004.46 1004.28 1003.80 1003.47 1002.53 1001.24 999.90 999.75 999.83 1000.06 1000.20 999.85 998.36 997.32 996.30 996.28 997.09 997.54 998.42 999.53 1001.07 1002.07
1025.88 1025.15 1024.45 1023.70 1023.05 1022.32 1021.85 1021.21 1020.57 1019.84 1019.08 1019.08 1018.77 1017.86 1017.40 1016.36 1015.00 1014.60 1013.59 1012.14 1010.65 1009.35 1008.23 1006.84 1005.53 1005.49 1004.88 1004.14 1003.34 1002.37 1001.56 1000.54 1000.29 999.93 1000.21 1000.28 999.84 998.65 997.27 996.29 996.22 996.60 997.18 997.78 999.06 1000.17 1000.66
1025.67 1025.13 1024.30 1023.59 1023.04 1022.43 1021.76 1021.06 1020.43 1019.71 1019.32 1019.37 1019.44 1018.81 1017.72 1016.65 1015.70 1014.55 1013.37 1011.95 1011.08 1009.80 1009.16 1007.16 1006.17 1005.48 1004.99 1004.34 1003.83 1002.98 1002.55 1001.82 1000.34 999.96 999.86 999.93 999.45 998.21 997.67 996.52 996.45 997.10 997.08 997.68 998.67 999.69 999.98
1025.47 1024.82 1024.17 1023.50 1022.85 1022.10 1021.47 1020.84 1020.28 1019.65 1019.50 1019.54 1019.04 1018.73 1017.98 1016.55 1015.57 1014.69 1013.63 1012.55 1011.40 1010.44 1008.75 1007.77 1006.47 1005.27 1004.58 1003.83 1003.28 1002.91 1002.58 1002.03 1001.62 1000.86 1000.08 999.80 999.48 997.71 997.26 996.60 997.30 998.05 997.52 998.19 998.86 998.88 999.29
1025.12 1024.63 1023.97 1023.33 1022.60 1021.94 1021.40 1020.80 1020.18 1019.57 1019.43 1019.84 1019.46 1018.89 1018.08 1016.52 1015.76 1014.61 1013.57 1012.55 1011.53 1010.28 1009.03 1007.14 1006.02 1004.99 1004.14 1003.57 1002.60 1001.96 1001.58 1001.18 1000.76 1000.21 999.93 999.70 998.90 997.70 997.82 998.20 998.40 997.93 997.93 998.05 997.83 999.08 999.73
1024.78 1024.20 1023.56 1022.98 1022.40 1021.61 1021.04 1020.45 1019.92 1019.32 1018.91 1019.32 1019.14 1018.88 1018.01 1016.42 1015.52 1014.09 1013.27 1012.39 1010.94 1009.60 1008.33 1007.06 1005.23 1004.68 1003.56 1002.84 1002.00 1001.34 1000.80 1000.33 999.59 999.02 999.17 999.33 998.30 998.05 998.50 998.48 998.48 998.46 998.16 997.69 997.29 1000.40 1000.82
1024.54 1024.02 1023.44 1022.81 1022.04 1021.35 1020.68 1020.11 1019.44 1018.93 1018.44 1018.48 1018.37 1018.25 1017.82 1016.66 1014.79 1014.18 1013.24 1012.32 1010.94 1009.49 1007.64 1006.36 1004.81 1003.95 1003.74 1002.88 1001.70 1000.81 1000.09 999.51 999.08 998.41 998.17 998.16 997.83 997.74 998.58 998.79 998.86 998.19 997.50 997.43 997.94 1001.02 1001.82
1024.36 1023.77 1023.28 1022.58 1021.79 1020.99 1020.22 1019.60 1019.13 1018.43 1017.98 1017.91 1017.57 1017.21 1017.21 1016.32 1014.26 1013.83 1013.29 1012.14 1011.27 1010.25 1008.85 1006.79 1005.23 1004.20 1003.97 1003.36 1002.03 1000.54 999.80 999.01 998.61 998.53 998.59 998.17 998.38 998.81 999.40 999.56 999.12 998.43 997.82 998.14 999.31 1000.71 1001.72
1024.00 1023.45 1022.96 1022.17 1021.34 1020.53 1019.79 1019.05 1018.59 1018.02 1017.64 1017.45 1016.96 1016.61 1016.97 1015.94 1013.63 1012.93 1012.49 1011.73 1010.95 1010.50 1009.03 1007.01 1006.05 1004.84 1004.33 1003.60 1002.45 1001.34 1000.12 999.08 998.81 998.85 998.23 998.43 999.07 999.83 1000.11 1000.44 1000.39 999.11 998.88 999.55 1000.22 1001.09 1002.23
1023.66 1023.09 1022.51 1021.83 1020.97 1020.21 1019.38 1018.64 1018.03 1017.52 1017.10 1016.84 1016.69 1016.32 1016.17 1015.94 1013.42 1012.13 1010.99 1010.24 1010.05 1009.27 1008.66 1007.43 1006.39 1005.35 1004.84 1004.06 1003.08 1002.12 1000.64 999.67 999.31 998.95 998.53 999.02 999.42 1000.01 1001.20 1001.92 1001.36 1000.29 1000.30 1000.69 1001.12 1001.88 1004.05
Wind_Speed
18 17 18 18 18 19 19 20 19 19 19 20 21 22 22 22 21 20 20 21 21 21 20 20 18 16 6 3 15 11 26 11 12 11 13 10 7 6 8 6 5 4 4 4 7 7 9
18 18 19 19 19 19 20 20 20 21 21 20 21 22 23 23 24 24 24 23 22 22 22 20 18 14 5 18 8 9 10 5 9 11 9 9 11 8 5 5 7 5 14 18 7 9 6
18 19 19 19 20 20 21 21 22 22 22 22 23 22 24 24 24 25 24 25 23 22 23 22 18 11 15 27 7 7 7 4 5 8 9 12 4 11 8 3 7 10 9 9 8 9 8
19 19 19 20 20 21 22 22 23 23 23 23 22 22 24 25 26 26 25 28 29 26 26 23 17 10 17 10 13 26 19 10 13 14 15 10 11 4 5 4 7 3 8 14 6 9 9
19 19 20 20 20 21 22 22 23 23 24 24 22 22 24 27 26 27 26 30 33 31 24 13 7 8 15 7 9 15 20 16 13 12 14 14 7 6 3 2 5 5 4 5 4 11 7
19 20 20 20 21 20 22 22 23 23 25 25 23 23 24 25 27 26 26 30 31 17 3 6 3 3 8 8 7 6 7 17 8 13 9 14 6 8 9 11 18 8 5 5 7 6 11
20 20 20 21 21 21 21 22 23 24 25 26 25 24 24 24 28 28 22 9 6 2 2 6 6 13 22 13 6 9 5 11 9 11 15 15 13 23 21 20 10 5 12 7 5 7 7
20 20 21 21 22 21 21 22 23 25 25 26 27 26 25 24 26 27 10 3 6 1 13 12 22 30 35 30 22 21 3 6 10 16 18 9 30 19 16 18 18 14 8 6 4 5 5
20 21 21 22 21 21 23 22 23 23 24 25 27 27 26 26 26 10 3 9 4 8 6 10 23 16 16 15 27 31 18 7 15 20 27 24 7 19 19 18 20 20 19 5 5 0 3
21 22 22 22 21 20 23 24 25 26 26 26 27 28 27 28 10 4 11 4 5 3 5 11 6 8 5 8 7 11 19 21 13 21 18 19 23 20 22 23 16 21 11 9 6 2 4
21 22 23 22 22 23 24 25 26 27 26 27 29 30 28 20 13 7 7 6 10 1 6 5 4 4 3 8 13 1 5 18 22 17 21 19 17 23 18 20 16 12 13 12 7 4 1
21 22 23 24 24 24 24 24 26 26 26 28 31 32 32 9 3 12 11 6 2 1 10 6 2 10 15 10 11 6 3 3 11 12 16 26 5 17 27 12 18 10 8 4 3 5 9
21 22 23 24 25 24 24 25 25 26 27 29 32 34 27 8 4 3 2 1 3 6 6 6 8 11 15 13 7 2 2 4 3 9 16 16 25 8 11 19 11 9 11 2 3 4 11
22 23 24 25 25 24 24 25 26 26 28 30 35 34 9 5 5 5 2 1 6 6 9 12 13 17 9 4 3 3 4 2 3 4 4 13 12 26 16 16 14 12 8 7 7 5 5
22 23 23 24 24 24 25 25 26 27 28 31 31 6 5 5 4 5 2 2 5 5 4 10 13 7 4 3 6 4 3 6 8 9 9 6 15 14 21 10 22 9 13 10 4 2 4
21 23 23 24 24 23 25 25 26 27 28 30 11 5 5 6 6 1 1 5 5 5 12 6 6 5 6 11 6 4 3 4 5 6 4 5 6 13 22 16 17 10 8 8 5 8 4
21 22 22 23 23 23 24 25 25 26 27 25 4 6 5 7 2 2 2 5 6 16 11 5 6 6 8 9 10 7 7 4 8 9 8 2 3 5 9 14 18 9 13 6 8 6 8
20 22 22 24 23 23 23 24 24 26 27 11 5 6 5 7 4 3 5 13 9 13 11 15 14 15 4 4 5 4 6 7 9 8 6 8 7 2 10 15 13 6 10 13 5 4 1
20 22 22 24 23 23 23 22 23 24 24 8 9 5 6 3 6 6 8 17 13 9 17 8 5 8 2 2 6 6 5 5 8 8 5 2 2 6 4 5 1 11 5 5 5 4 6
21 21 23 23 22 22 23 22 22 23 23 6 3 5 5 4 3 8 16 10 13 14 15 17 14 12 4 3 4 7 9 1 8 3 9 5 4 3 6 4 7 17 16 10 7 5 6
21 21 22 22 23 23 22 21 22 22 22 3 3 3 3 6 11 14 14 12 16 12 5 11 2 8 12 5 8 4 4 5 5 6 7 6 4 8 7 10 12 13 15 18 9 7 8
21 21 22 22 22 22 22 20 20 21 18 3 2 4 3 7 10 13 11 5 16 16 8 9 9 14 12 6 7 14 9 5 3 8 6 6 4 14 11 16 15 5 5 10 9 7 6
20 21 22 22 22 23 22 21 22 20 10 3 2 3 4 6 5 10 6 16 22 22 9 17 20 13 11 12 9 14 9 12 11 7 2 1 2 8 4 17 13 3 2 4 4 4 15
20 21 21 21 22 22 22 22 22 20 13 2 3 3 3 8 7 11 19 19 21 22 16 20 17 10 6 17 17 11 13 14 13 12 5 3 8 1 10 16 5 5 8 7 16 7 14
20 20 21 22 23 23 22 22 21 20 18 3 2 2 3 8 9 16 16 21 20 19 15 18 17 15 16 10 3 1 1 3 7 11 11 11 4 6 5 4 7 13 7 8 14 5 8
21 21 22 22 23 24 24 22 21 20 19 1 3 3 4 5 3 14 19 17 13 10 10 10 12 11 7 3 3 3 3 3 3 2 12 8 1 4 4 6 3 4 10 5 3 5 10
21 21 22 23 24 25 25 23 22 21 20 8 4 5 3 5 9 6 11 11 6 6 7 10 9 6 5 3 2 2 2 1 1 1 1 2 4 7 4 4 3 3 3 7 3 8 15
21 21 22 23 24 25 26 24 22 20 20 9 5 3 2 4 13 12 13 15 14 8 4 11 8 2 3 4 4 3 2 2 3 2 1 3 5 3 4 4 3 5 4 4 5 12 16
21 22 23 24 24 25 25 26 23 19 18 13 3 1 3 5 11 14 19 20 18 19 9 4 5 10 3 3 2 3 3 3 1 3 3 5 3 4 4 3 6 6 8 10 14 21 13
Wind_Direction
12 10 11 8 5 1 356 351 347 346 345 343 340 337 334 332 329 324 315 312 310 307 307 307 310 316 336 264 247 300 311 347 139 164 192 173 149 164 184 202 199 233 246 228 216 231 252
10 8 8 6 2 359 356 353 351 347 344 340 339 337 334 331 327 323 318 313 308 304 299 296 298 301 265 263 236 253 264 302 175 170 191 175 195 181 194 233 189 212 221 244 239 246 242
13 12 9 4 1 359 356 353 351 348 344 341 339 335 333 330 328 324 318 311 305 301 296 289 286 277 255 243 228 216 275 307 314 232 178 214 202 176 163 305 213 242 275 283 229 223 234
11 9 4 3 360 358 355 353 350 347 343 340 336 331 329 327 325 322 317 309 302 299 290 282 267 261 256 241 246 252 259 252 234 229 245 206 208 192 160 309 347 236 204 242 180 197 238
7 3 2 1 359 355 352 350 348 345 342 339 335 330 327 325 322 320 316 308 301 300 291 266 231 200 268 295 236 248 219 227 213 208 216 228 159 197 150 122 324 254 232 210 251 197 217
3 360 358 355 353 351 347 345 343 340 338 336 332 330 327 322 320 318 315 309 297 306 62 156 222 218 262 253 219 231 173 201 209 167 193 204 175 197 201 182 213 209 206 212 196 208 203
360 360 357 354 350 348 345 344 343 340 336 333 331 327 323 323 318 316 324 326 7 18 355 255 233 243 292 262 241 247 138 142 228 173 183 190 199 209 199 211 223 215 225 192 188 223 192
357 354 353 352 351 346 343 342 341 339 335 330 326 324 324 322 314 316 314 307 240 96 293 230 250 256 242 248 274 268 360 176 193 204 178 165 221 199 194 199 211 231 241 222 234 243 167
352 352 349 349 344 345 344 341 337 335 334 330 325 322 323 322 315 322 303 254 269 5 265 266 222 243 244 211 245 255 233 238 226 211 195 199 241 191 199 192 201 218 227 185 187 357 232
353 349 348 347 340 344 343 340 338 335 333 330 324 322 324 327 317 308 293 289 348 310 290 275 222 249 195 208 250 231 214 209 212 230 207 223 229 189 193 211 193 218 192 188 192 191 217
355 351 348 346 343 342 338 339 336 336 333 330 323 320 320 318 286 266 245 346 331 120 297 260 246 139 135 168 311 359 211 177 215 207 187 213 198 216 211 208 194 219 173 189 179 211 85
352 350 348 347 343 344 339 335 337 333 333 329 322 318 320 319 223 254 275 336 307 216 249 282 311 10 2 329 315 323 21 111 198 232 212 220 193 199 221 200 211 151 167 166 157 116 241
350 348 347 346 345 344 340 338 337 337 333 329 322 319 316 288 256 321 26 261 166 228 310 269 358 349 341 308 303 52 29 20 351 185 220 222 220 216 197 205 204 188 140 165 198 189 235
347 346 346 345 344 341 338 338 338 335 332 331 323 319 304 257 236 248 315 341 209 243 238 304 342 326 311 292 282 250 124 110 246 202 265 211 205 207 206 200 197 197 163 150 179 171 177
346 345 344 341 342 340 337 335 336 337 334 333 324 323 308 290 132 135 259 207 231 229 278 346 325 284 290 330 321 295 238 197 191 199 202 221 230 180 212 196 186 189 189 176 87 339 90
343 344 343 339 341 338 336 338 337 337 338 336 323 335 287 328 101 104 280 248 263 271 325 350 282 257 264 277 292 277 229 185 194 164 112 187 240 212 200 197 220 180 164 161 210 186 182
343 342 339 338 338 336 337 340 339 339 340 335 355 337 269 348 197 47 325 295 294 306 321 273 268 261 252 285 254 247 246 213 181 184 142 16 259 224 175 195 197 178 208 198 156 155 168
340 339 336 338 336 336 339 341 341 340 341 348 338 323 303 353 26 319 323 308 289 279 291 294 250 268 279 286 257 235 252 244 175 168 161 152 179 234 195 212 202 150 195 215 180 197 139
340 337 337 339 337 336 336 338 341 340 343 332 327 282 302 37 18 330 317 314 294 312 313 296 250 253 313 290 301 226 267 248 164 168 141 213 239 132 119 60 186 215 164 138 109 108 185
336 335 336 338 337 334 334 339 340 340 338 345 297 307 323 15 16 320 319 318 323 326 307 328 301 279 280 272 241 292 301 243 189 126 124 127 279 231 184 118 117 171 208 179 139 128 165
332 334 335 335 335 339 340 341 338 342 342 45 343 327 318 316 323 311 315 298 317 329 306 311 332 352 313 280 307 271 313 266 185 205 151 157 239 251 274 149 147 154 180 204 189 190 167
334 333 334 336 340 339 338 335 336 340 349 46 331 320 297 283 280 313 309 322 317 325 305 304 307 333 313 274 268 292 292 283 285 217 183 188 250 196 224 159 139 114 39 201 194 162 127
331 331 333 335 335 332 333 334 335 334 11 306 286 264 267 286 291 308 317 317 315 317 295 305 310 313 288 281 296 293 278 278 273 285 253 318 212 179 123 143 110 130 235 186 177 134 139
331 330 331 331 329 329 331 331 330 332 344 224 284 279 286 291 302 298 304 314 311 313 296 299 303 301 275 297 279 253 247 256 254 250 230 231 233 124 122 127 161 164 239 190 112 95 105
326 328 330 328 328 328 326 325 325 326 328 183 260 271 276 291 303 295 319 314 309 313 305 295 294 297 305 296 254 69 163 217 235 227 180 222 249 92 119 89 101 119 166 156 131 65 121
327 329 328 327 327 327 327 325 324 322 327 307 232 207 272 290 272 323 305 302 300 315 307 289 300 298 355 284 302 228 183 168 205 300 160 238 22 118 94 100 124 178 210 145 137 102 149
326 328 326 327 326 326 326 328 323 323 327 320 257 199 241 270 277 293 305 300 309 303 272 294 330 315 48 326 290 207 117 100 170 145 311 60 44 70 80 87 57 107 249 148 146 206 159
325 326 324 325 326 325 324 326 324 320 323 328 275 215 218 264 284 263 270 284 288 284 274 302 311 29 299 330 337 348 333 60 53 173 335 73 86 48 54 86 88 358 66 184 190 105 120
324 323 323 325 326 322 323 324 324 324 319 329 267 201 190 234 268 285 273 264 256 258 273 269 267 303 283 311 322 298 328 9 178 59 347 61 96 106 46 56 351 27 104 81 104 110 120